GFSSE_prec_cthk_057.txt.gz
RH
57 55 54 55 57 55 56 57 57 54 54 51 47 48 47 47 46 46 41 39 39 41 40 38 35 36 38 38 39 41 49 55 55 51 53 56 57 60 62 45 41 44 41
57 52 49 53 56 55 57 59 57 52 51 41 35 38 40 42 44 44 49 49 46 44 42 43 49 45 43 42 40 44 49 54 61 53 52 56 60 59 51 42 45 47 45
56 51 48 51 55 55 57 53 45 42 39 37 43 46 44 46 49 51 52 56 54 57 55 52 55 53 50 48 47 53 57 63 77 73 59 56 61 55 44 51 49 43 40
54 49 47 48 52 48 45 41 39 41 43 46 49 51 52 54 57 54 53 51 50 52 54 57 54 55 57 53 49 59 63 69 80 70 55 56 56 51 60 45 43 41 44
53 45 46 43 43 36 34 38 43 46 46 50 51 51 52 48 45 46 44 43 48 53 56 51 44 45 52 56 52 60 63 76 81 68 58 58 62 57 51 44 41 45 40
50 43 43 38 32 30 44 48 50 53 53 52 50 51 49 38 38 42 41 52 56 56 57 56 56 50 46 46 44 60 71 84 77 64 68 60 55 51 44 39 44 41 45
48 38 33 28 31 38 41 49 53 51 52 51 50 49 35 32 35 39 47 54 62 74 65 49 39 41 37 38 50 58 83 79 64 70 62 56 52 46 47 41 45 44 49
42 29 28 32 35 36 44 48 49 49 51 49 46 35 27 31 32 41 47 53 61 66 49 40 34 34 42 54 55 64 70 67 71 64 50 54 55 48 45 45 44 47 46
37 27 28 32 33 35 41 46 46 48 47 40 38 26 26 25 31 38 47 54 61 61 46 41 38 39 46 55 58 62 66 65 59 49 48 55 49 47 46 44 43 48 49
45 28 29 31 34 34 40 44 47 45 39 38 27 24 29 32 34 43 50 54 57 60 59 50 40 37 47 52 62 66 68 63 53 50 48 53 47 48 45 42 47 50 48
48 30 29 30 33 36 44 41 44 42 37 32 31 47 35 35 40 42 46 46 49 52 54 53 51 50 50 49 58 88 72 60 56 45 46 49 47 43 39 38 40 45 44
46 31 27 31 33 38 41 39 41 41 44 42 48 65 49 45 44 42 39 43 48 55 62 65 73 63 56 56 56 71 63 60 54 40 42 42 38 37 36 36 36 40 40
44 36 28 32 34 38 38 39 45 41 35 44 52 62 58 53 50 60 47 75 44 53 64 60 70 66 63 62 61 60 59 66 52 40 39 36 35 31 33 33 33 37 38
41 38 39 39 35 44 42 42 51 39 38 57 67 59 63 66 58 65 66 65 57 42 57 45 47 59 70 64 79 65 72 63 58 50 41 40 35 35 34 32 32 33 33
41 40 42 42 39 45 49 51 52 37 45 47 58 67 55 55 60 77 71 70 72 55 58 42 41 42 54 59 62 60 67 60 52 50 46 39 40 40 39 31 30 31 33
43 45 54 46 54 43 48 64 63 57 51 55 57 67 67 67 68 64 67 67 63 53 48 42 53 72 47 58 69 64 58 54 54 56 55 52 49 44 39 38 35 34 34
40 40 45 44 55 56 58 58 41 51 59 55 58 62 69 73 71 62 62 87 64 49 44 43 40 42 46 59 60 62 59 58 60 58 54 52 52 51 44 40 37 37 36
43 40 49 44 50 53 53 66 44 54 54 59 56 63 65 61 66 69 59 59 51 53 47 44 46 50 47 53 55 55 57 57 57 55 54 48 44 43 44 40 39 37 36
43 38 38 40 54 49 40 39 45 52 52 58 57 63 60 63 71 75 59 66 54 59 43 41 41 45 45 44 42 43 50 52 47 46 44 41 34 33 34 37 37 37 34
39 37 36 34 40 42 40 44 62 44 54 57 53 55 51 63 74 68 55 52 63 59 47 36 42 41 45 47 41 50 39 37 37 36 37 35 34 32 34 29 32 32 35
38 37 36 35 40 39 35 41 49 47 53 55 54 60 47 55 67 67 48 49 53 58 38 53 41 41 42 47 38 38 38 42 41 39 40 36 37 36 35 33 27 32 35
36 37 32 34 41 41 37 39 40 49 50 54 57 55 50 49 55 62 55 60 50 41 34 36 39 44 41 37 33 40 37 40 41 43 41 39 39 38 34 32 36 34 35
35 35 31 29 37 39 39 43 44 44 50 54 61 53 49 46 45 56 55 52 48 39 37 37 36 39 34 38 35 41 39 42 44 46 44 38 41 34 34 37 41 41 40
34 34 31 25 36 38 39 42 43 44 43 47 51 44 46 41 42 55 51 51 45 47 37 41 45 42 43 44 44 45 44 44 40 40 43 41 36 36 42 40 42 41 41
34 31 30 24 31 37 36 37 42 46 46 45 42 56 44 46 44 43 46 44 44 45 41 37 45 50 42 42 43 43 42 46 44 44 44 39 40 40 42 39 38 37 37
36 33 30 26 22 33 34 31 36 41 42 43 39 44 48 47 44 41 49 46 43 49 43 38 37 42 46 42 41 42 45 51 42 46 44 41 43 42 42 39 37 37 37

GFSSE_prec_cthk_060.txt.gz
RH
56 56 59 61 59 57 59 55 54 58 59 54 53 51 49 48 47 44 41 40 41 40 38 38 37 39 38 39 42 48 53 57 51 55 55 57 61 54 42 45 44 43 39
51 50 54 56 54 55 59 58 55 54 47 42 42 43 44 45 45 43 45 48 46 44 45 46 43 44 46 41 42 47 49 58 54 53 57 59 55 44 49 47 44 39 40
49 49 51 51 52 54 58 59 52 48 37 39 44 44 46 50 55 54 55 58 61 53 55 60 52 52 50 49 52 56 55 71 63 56 56 62 49 56 47 44 43 41 39
48 47 49 52 50 54 50 44 41 40 44 48 48 52 55 59 58 53 55 50 54 59 55 52 56 51 53 50 58 60 69 76 67 55 57 52 55 51 42 39 40 41 44
47 45 46 49 46 43 39 39 43 44 48 52 53 53 53 47 46 43 47 49 54 57 53 46 46 52 56 50 55 63 73 78 62 55 58 58 54 45 37 41 40 43 45
44 44 41 42 36 34 38 45 47 50 51 49 50 53 40 41 39 45 54 54 56 51 52 50 42 44 51 44 61 71 79 67 65 65 59 55 49 44 39 43 40 43 44
41 43 39 37 31 40 48 49 51 52 52 48 48 36 36 37 39 50 56 66 64 48 38 42 42 42 39 54 69 79 72 65 69 58 55 53 46 46 42 45 49 52 49
39 39 33 27 34 40 47 51 50 51 50 45 35 29 32 36 42 49 55 64 49 39 34 33 37 47 50 52 67 73 69 63 61 50 55 49 46 43 46 43 52 45 52
36 29 26 31 36 42 46 47 50 49 44 37 26 25 27 34 42 48 57 62 47 41 38 36 45 51 54 63 68 65 63 59 50 49 53 47 48 47 43 46 47 50 50
30 26 27 29 32 39 45 46 48 43 37 28 24 28 30 35 42 49 54 58 58 52 41 38 43 53 59 62 64 66 60 55 50 51 52 47 45 39 40 45 46 44 41
36 28 28 31 33 39 43 46 45 38 32 30 39 35 35 40 42 44 46 52 55 51 48 50 51 52 56 64 73 60 53 50 47 47 48 42 40 37 39 42 42 41 41
40 33 28 31 35 41 43 43 39 36 32 47 51 39 38 42 38 47 50 47 55 60 65 67 64 59 55 62 68 51 53 50 44 43 40 38 34 35 36 37 40 39 41
38 29 27 30 35 40 41 38 38 39 39 50 59 52 44 42 47 50 59 47 57 61 64 70 69 65 60 59 56 54 54 53 49 40 39 35 33 34 35 34 38 38 38
41 33 27 32 34 39 38 39 38 31 47 62 59 59 56 56 61 58 58 51 40 52 45 56 62 65 63 66 63 60 56 52 49 44 40 36 37 34 31 31 32 34 34
41 38 31 35 36 40 40 45 36 36 49 51 60 55 53 55 63 68 65 66 56 56 41 41 47 58 62 66 58 58 53 50 49 47 40 42 40 38 34 32 32 33 34
38 40 38 40 37 43 48 60 38 46 49 58 59 64 63 57 62 63 70 65 53 50 43 53 51 54 51 58 59 53 49 50 55 56 53 50 47 41 37 34 33 32 33
38 39 44 49 44 44 54 64 50 45 51 58 60 66 70 69 64 64 68 69 49 42 39 42 49 48 53 58 59 57 53 56 57 54 49 50 47 44 40 38 36 37 38
41 44 50 56 53 46 49 50 49 45 55 57 61 62 63 67 65 59 58 52 52 44 37 35 41 42 51 53 56 58 57 58 56 53 46 40 39 39 39 37 35 33 30
42 44 48 52 51 56 65 67 44 54 55 55 61 61 63 68 72 58 53 50 46 41 37 37 38 41 44 47 47 51 54 53 50 46 39 38 34 35 32 34 35 35 31
46 44 48 49 55 48 51 47 42 47 52 54 58 58 60 68 65 64 54 56 60 47 40 37 39 43 43 43 45 41 41 42 39 39 36 35 34 32 32 31 33 35 30
47 45 44 43 45 46 44 49 56 47 51 56 56 53 55 67 76 55 50 53 59 47 39 39 40 40 40 41 40 40 44 42 38 39 37 35 38 36 36 40 34 35 39
48 44 41 37 35 39 39 46 48 46 59 54 58 58 51 59 65 53 54 52 41 37 40 41 38 41 41 36 36 34 38 37 42 41 38 38 36 36 41 43 44 43 40
45 42 37 36 36 37 38 39 47 50 52 59 61 54 49 52 53 56 50 49 41 39 38 41 41 45 39 34 35 38 36 40 45 41 37 36 35 40 43 43 46 46 44
49 42 37 36 37 38 38 36 43 46 52 54 55 51 48 47 48 54 53 48 43 40 36 41 40 38 36 40 41 44 42 44 44 41 39 37 38 40 42 42 44 43 43
46 42 38 35 37 37 40 35 40 44 45 50 54 46 44 44 46 46 45 46 47 46 38 40 43 38 39 42 43 44 43 45 43 42 41 41 42 41 40 40 40 39 40
47 44 40 36 36 36 41 39 43 45 46 48 47 46 47 45 46 45 44 43 48 46 38 38 41 43 39 40 41 43 44 45 46 43 42 43 45 44 42 40 39 41 42

GFSSE_prec_cthk_063.txt.gz
RH
59 64 66 63 58 59 57 59 59 56 53 50 46 44 44 44 44 43 42 39 38 38 39 38 35 35 39 42 46 52 57 52 55 55 57 59 45 44 47 46 42 40 40
56 62 63 60 58 59 52 51 54 50 45 43 44 45 45 42 39 37 41 45 46 42 43 45 42 44 40 39 45 49 58 58 56 56 60 51 49 49 47 42 43 42 40
56 57 60 58 57 60 54 53 52 43 39 39 40 43 46 49 53 53 58 58 53 54 57 52 52 51 47 48 53 51 68 59 54 58 57 54 52 49 44 45 46 38 36
51 55 55 54 56 57 57 51 45 36 42 45 47 53 61 62 58 55 55 53 56 57 56 53 52 53 53 60 56 69 77 64 55 56 55 57 48 43 42 40 46 50 50
48 51 53 51 55 52 44 40 41 45 49 51 54 56 49 46 43 46 48 52 56 55 51 54 51 56 52 55 62 75 74 60 56 59 55 50 45 39 46 42 44 48 43
47 48 50 50 50 43 42 43 44 50 49 51 54 46 42 42 45 55 54 55 50 53 50 41 44 50 48 63 72 82 77 62 62 58 53 49 43 42 42 42 51 43 42
44 43 44 40 36 40 45 49 50 52 47 50 44 42 41 41 53 62 67 57 49 48 44 45 49 55 64 73 81 82 68 67 58 57 52 47 45 52 49 54 56 51 50
44 40 38 34 37 52 52 52 53 52 48 41 37 40 42 45 53 60 56 43 42 33 34 39 54 56 71 76 73 67 62 60 52 56 47 46 46 46 49 54 51 54 51
44 39 32 30 42 47 54 52 51 46 40 31 32 31 39 46 52 62 52 41 37 35 41 50 48 50 58 68 64 59 58 50 50 51 47 48 53 51 48 48 54 47 45
41 32 27 35 37 47 49 49 48 41 31 24 28 29 35 42 52 59 57 52 42 34 43 53 53 63 66 65 62 58 51 48 50 48 47 44 40 41 43 44 43 39 37
30 28 30 33 37 42 46 48 42 34 30 30 32 38 40 40 48 49 55 54 49 47 47 52 57 61 67 68 59 50 45 45 47 46 41 39 39 42 44 41 41 41 37
28 29 30 33 36 41 44 45 38 32 34 42 35 43 43 44 53 52 52 56 55 60 63 54 53 61 72 61 55 47 45 44 42 39 36 34 35 35 36 39 39 38 37
36 31 30 33 38 41 42 40 37 39 42 52 47 44 41 42 47 57 52 56 63 69 67 65 57 56 56 58 54 46 48 47 39 37 31 32 33 34 34 35 36 35 34
39 32 28 32 38 40 40 38 37 39 50 59 58 53 54 61 57 57 49 45 59 55 64 62 60 62 58 56 54 52 49 45 40 35 36 35 31 29 30 32 32 32 33
41 31 27 31 35 38 38 39 36 43 56 62 62 57 52 61 67 59 65 49 53 48 49 55 62 58 65 60 56 52 50 47 44 43 41 39 36 35 32 31 31 32 32
39 35 29 32 35 39 38 42 39 46 59 60 62 58 58 68 71 72 69 60 49 45 48 49 53 58 60 55 50 49 51 51 51 50 50 46 41 37 34 33 32 33 34
39 36 34 35 36 41 52 49 42 50 59 61 65 64 68 68 66 73 71 57 50 43 51 51 52 54 58 57 51 49 52 53 50 48 48 46 43 40 38 37 37 35 31
42 41 45 42 41 46 54 59 52 52 61 64 67 66 69 71 65 60 65 57 50 44 41 45 45 52 58 59 56 55 55 52 48 44 41 40 39 35 36 34 32 29 29
42 41 48 55 45 42 50 56 52 52 57 61 69 67 73 75 67 58 53 52 44 39 40 43 43 50 49 53 57 55 54 51 46 41 41 37 36 33 31 35 34 36 35
45 43 51 53 53 51 63 55 45 56 57 58 66 66 74 76 70 57 56 55 47 42 40 41 40 41 45 46 47 46 48 43 41 37 37 37 37 36 36 32 38 40 39
47 46 49 50 51 50 52 57 45 51 55 54 60 63 70 72 66 55 60 54 57 46 38 39 36 41 41 45 38 41 40 39 38 36 37 38 40 43 40 42 41 42 43
49 43 48 49 53 48 45 46 40 46 58 59 62 62 66 78 62 54 54 48 45 39 37 40 39 40 37 35 38 42 39 37 36 36 37 38 41 42 44 48 47 44 42
48 44 44 44 43 41 42 49 49 52 59 61 63 61 57 62 59 57 50 45 41 38 40 40 38 41 40 32 35 38 40 39 38 37 35 37 40 43 45 46 46 46 45
51 51 43 44 42 39 37 38 44 44 53 57 62 59 53 51 54 57 49 46 45 43 38 42 41 45 38 33 38 41 45 44 40 38 35 38 40 42 44 42 42 43 43
46 46 43 46 46 45 41 36 36 41 52 54 59 58 51 52 53 56 54 48 43 41 40 43 44 41 40 43 44 45 45 43 42 38 40 40 40 42 42 40 41 42 45
46 45 44 45 45 42 42 37 36 39 44 54 57 55 52 49 50 48 50 49 48 43 41 43 43 42 42 44 45 44 44 45 44 41 43 43 42 43 40 39 41 43 44

GFSSE_prec_cthk_069.txt.gz
RH
67 69 66 58 53 55 56 59 58 56 54 51 49 49 49 49 48 47 45 43 42 40 34 36 37 41 47 56 58 56 62 63 61 49 49 54 47 39 46 38 48 54 53
62 62 61 57 56 56 53 53 53 52 50 49 48 50 48 45 41 40 44 44 44 48 58 42 46 48 48 50 61 59 63 68 65 53 50 50 44 48 37 44 49 51 40
60 57 58 57 57 57 56 54 49 45 43 43 47 50 54 52 55 59 55 55 52 49 51 49 53 58 54 56 65 72 68 68 53 52 54 56 52 49 36 37 40 34 30
56 55 56 56 52 50 52 48 41 37 41 49 54 64 64 67 63 65 60 63 63 63 57 60 60 60 57 60 78 65 59 57 55 49 46 47 46 51 49 47 35 34 36
53 53 56 56 50 47 48 40 37 45 49 51 57 56 53 49 48 52 62 56 58 69 56 56 60 57 60 80 78 61 57 59 51 45 39 55 47 43 49 40 36 45 52
52 50 51 53 52 47 42 42 44 49 51 50 54 46 42 44 53 60 53 54 50 63 58 60 54 65 79 83 75 60 62 58 50 47 45 43 45 55 49 44 44 52 48
49 47 49 50 43 41 41 44 46 48 49 49 46 43 48 59 66 62 62 65 44 45 50 59 64 70 80 81 76 64 59 56 49 45 51 55 57 58 53 49 45 45 47
45 47 50 50 44 44 46 47 47 44 47 42 41 44 57 60 61 53 47 38 40 49 55 62 67 74 80 79 71 61 56 55 49 48 51 54 57 55 52 50 41 37 43
41 42 42 41 43 46 54 52 48 43 34 34 39 47 58 59 52 48 49 41 42 49 58 73 74 74 74 67 60 55 53 50 49 51 57 54 51 54 50 40 44 38 42
38 38 36 40 52 54 55 51 42 33 32 29 36 45 60 63 54 42 39 44 45 52 61 74 75 73 70 63 55 51 52 49 51 47 50 44 41 42 40 39 39 40 42
39 35 31 44 47 55 54 47 35 28 30 32 36 42 48 60 57 57 43 45 50 53 60 68 72 69 60 53 49 49 49 47 45 43 45 43 49 44 40 40 38 37 37
39 31 31 39 44 47 49 43 34 27 31 33 34 44 51 53 58 58 55 50 54 56 62 70 66 58 57 55 50 45 43 40 38 40 41 42 40 37 39 38 39 35 34
32 27 32 36 43 46 46 35 31 40 37 39 35 38 45 49 55 53 64 63 59 56 61 66 63 59 53 49 51 47 39 36 33 37 34 35 35 35 35 35 34 33 35
27 28 31 35 40 43 40 34 38 44 48 46 42 49 51 49 47 49 60 64 64 58 55 59 58 56 54 51 51 47 40 36 38 37 34 31 36 33 32 33 33 31 31
27 29 30 34 38 40 37 35 37 47 52 52 48 57 60 56 58 50 53 52 62 59 57 62 57 58 57 54 51 50 47 45 46 42 42 37 35 33 32 32 32 32 30
32 26 28 33 37 38 35 35 36 56 58 52 52 59 66 68 63 58 52 50 48 53 60 62 62 59 55 53 52 52 49 50 50 47 45 43 39 37 36 35 34 31 36
38 30 26 32 35 37 33 33 40 60 59 58 60 61 71 76 71 68 63 52 44 46 49 60 62 60 56 53 54 54 53 50 48 45 42 40 39 39 39 34 30 32 39
39 34 28 31 35 37 35 39 44 54 58 64 67 70 69 66 67 65 63 54 48 47 53 53 56 57 55 54 54 52 48 45 42 39 38 38 38 37 32 31 34 38 40
39 34 30 30 36 38 39 44 48 57 59 67 67 74 74 68 65 62 56 48 43 43 46 50 56 56 57 57 54 51 49 46 41 37 34 33 32 29 29 35 39 40 43
34 30 30 32 37 47 49 49 49 52 57 65 66 72 76 70 68 58 50 48 46 39 40 47 56 59 60 56 54 51 47 41 37 35 33 35 34 36 37 40 42 44 43
35 34 36 36 39 46 44 51 48 48 57 62 64 74 72 68 65 55 52 49 48 42 39 42 45 49 51 51 49 46 40 35 32 32 34 36 41 44 46 46 45 42 41
39 38 44 47 40 42 44 52 50 50 57 59 63 70 70 67 62 58 53 46 49 40 41 38 41 46 45 44 41 40 37 35 33 35 35 40 44 46 47 45 43 44 42
42 41 46 56 45 47 54 51 49 49 58 57 62 65 68 68 62 58 50 43 43 43 39 38 37 41 41 35 37 39 40 40 39 37 36 42 45 45 44 44 44 43 45
43 42 46 52 53 51 50 46 50 49 51 56 63 68 59 59 63 54 47 45 42 42 38 37 38 40 34 32 36 39 40 42 44 43 40 42 44 44 44 43 42 45 45
44 43 46 49 53 50 47 42 44 48 53 56 63 62 55 53 57 50 45 47 48 42 40 39 37 41 36 31 37 42 43 44 46 43 47 45 43 44 43 43 44 45 46
47 47 46 48 52 52 48 44 46 46 51 53 60 61 58 53 57 49 52 54 50 45 47 41 39 39 37 36 38 44 44 47 49 48 47 46 45 44 45 46 46 46 47

GFSSE_prec_cthk_072.txt.gz
RH
78 74 73 74 69 67 73 67 66 61 54 52 51 50 50 49 47 44 43 42 42 36 37 41 44 47 53 58 60 61 66 57 52 50 46 40 45 39 45 55 60 56 46
73 70 61 57 57 56 58 53 53 52 50 49 51 52 50 47 43 44 48 46 45 54 47 44 48 48 48 60 62 68 71 58 51 53 44 51 39 44 47 53 51 35 33
67 62 55 53 54 52 54 53 51 51 52 53 53 51 51 54 56 52 52 49 48 53 50 51 56 55 52 61 70 71 69 55 55 52 59 57 41 37 41 41 32 32 37
64 64 60 53 53 53 51 45 41 42 47 53 63 66 65 65 61 65 63 65 58 58 58 61 62 61 61 72 71 64 57 59 48 52 57 59 57 52 39 36 37 42 42
65 68 59 52 49 52 50 38 43 49 52 59 57 53 48 47 54 58 57 58 65 58 58 61 61 66 79 75 67 58 61 51 44 54 57 56 57 49 40 45 52 49 49
61 66 55 51 46 48 43 43 49 54 55 60 46 43 51 60 58 56 56 52 65 57 59 59 71 81 82 74 61 62 57 52 55 54 49 58 59 47 45 54 54 47 51
60 60 56 54 50 43 45 49 51 51 54 54 47 51 62 62 60 59 58 46 50 62 60 62 76 87 79 75 65 59 56 54 56 62 66 65 61 52 48 46 45 49 47
57 58 53 46 43 44 44 49 46 49 49 46 49 54 61 57 49 44 38 36 45 53 61 64 76 80 83 73 60 56 54 57 58 64 64 66 58 52 46 37 36 43 46
57 57 55 51 45 47 49 49 45 40 38 44 48 56 57 49 48 44 37 43 50 62 67 72 81 79 72 59 57 54 50 54 61 66 65 56 56 47 45 43 38 47 47
52 52 51 51 53 59 55 44 39 31 34 40 49 61 68 46 40 44 44 49 56 76 76 74 73 70 62 58 50 51 51 53 55 57 52 44 43 42 40 39 45 44 43
49 48 47 57 62 60 57 42 33 41 38 39 52 63 70 66 57 49 47 48 57 68 73 74 65 61 55 48 48 51 53 54 52 53 55 52 48 44 43 39 37 37 36
45 45 51 56 57 56 59 43 39 43 48 48 53 58 64 66 62 56 52 52 56 63 67 66 61 62 68 60 51 52 52 47 50 53 45 41 38 43 40 40 35 34 33
43 43 48 50 52 55 48 43 45 45 47 44 45 54 59 63 64 68 67 62 58 65 70 64 61 60 57 58 56 49 44 46 47 46 33 34 35 35 35 32 31 31 30
38 39 47 48 51 54 45 43 53 55 54 49 52 52 49 52 58 69 65 65 60 62 63 62 60 56 52 55 53 47 44 48 48 45 31 34 34 31 32 33 29 27 26
37 37 43 46 46 50 43 46 54 58 62 54 60 58 56 59 53 61 60 65 62 59 57 58 58 58 56 55 51 51 48 50 48 48 42 34 32 31 31 30 29 29 36
33 35 41 43 45 44 46 40 56 63 56 60 60 61 60 59 52 50 53 55 57 60 63 62 59 59 57 55 52 51 52 53 50 50 49 41 36 35 34 32 30 37 41
34 38 41 41 44 41 41 38 58 69 60 60 64 68 71 68 62 58 53 50 52 55 54 58 61 58 55 55 54 53 52 51 49 46 47 47 41 38 32 28 36 40 43
46 36 35 42 42 40 39 39 62 65 66 71 69 71 67 68 68 64 58 51 46 51 53 59 63 58 54 55 56 54 50 49 43 42 42 44 42 40 29 36 37 37 38
48 38 33 38 40 42 40 41 58 62 68 73 73 73 67 65 68 66 58 46 44 52 54 56 57 60 54 54 54 54 52 47 43 43 38 37 32 34 41 39 40 40 38
47 41 37 37 40 41 42 47 58 65 67 69 73 74 69 67 71 61 54 46 41 41 49 55 58 58 59 54 55 52 49 43 40 38 38 37 35 41 47 45 47 44 37
46 39 37 36 41 45 45 50 53 60 66 69 72 69 64 65 57 55 57 47 45 41 42 48 56 56 56 49 53 50 44 38 37 37 39 40 44 49 51 50 48 49 45
41 32 35 37 41 48 49 53 54 56 66 69 69 68 70 66 61 56 51 46 46 40 36 37 49 55 52 47 49 47 43 42 43 42 42 43 46 50 49 46 43 44 44
41 35 37 43 44 48 48 53 54 53 63 65 69 66 68 64 60 56 44 44 40 42 41 36 41 46 49 39 37 44 50 49 47 41 43 46 45 48 46 46 43 45 42
42 39 44 51 49 45 49 53 52 53 62 64 71 70 62 64 60 52 43 40 41 43 41 38 36 43 42 42 39 40 42 45 52 50 46 47 45 49 45 46 47 44 42
45 44 46 55 57 55 57 51 53 53 60 62 72 74 60 60 61 49 43 42 41 42 33 38 36 35 34 41 43 44 42 47 44 55 52 47 48 49 45 45 47 46 46
48 43 48 52 56 55 55 49 45 51 56 63 66 72 66 61 61 50 47 45 41 43 39 34 37 38 40 37 43 44 48 54 51 53 54 51 53 48 50 46 47 48 47

GFSSE_prec_cthk_075.txt.gz
RH
74 70 71 70 70 72 68 68 68 60 54 52 51 52 51 49 46 44 43 43 39 37 40 44 46 57 57 62 61 61 57 52 45 40 46 41 47 53 62 69 55 48 48
71 71 68 66 66 66 64 60 54 53 52 54 55 52 50 45 44 46 47 48 45 52 43 50 48 49 56 65 67 64 58 59 49 55 44 44 54 56 56 43 34 38 47
68 64 60 54 54 55 52 52 54 54 59 66 53 51 56 54 52 50 49 45 48 53 48 53 51 55 58 68 66 65 61 59 64 65 52 44 40 40 35 32 36 40 46
62 57 54 50 51 57 49 44 46 50 57 64 64 65 62 60 59 61 56 53 55 54 59 63 60 64 66 70 68 61 57 51 55 69 66 62 48 37 39 44 44 46 50
61 61 54 52 52 52 43 39 52 54 59 58 52 46 45 49 54 58 61 61 57 57 59 61 68 72 76 70 58 60 47 52 57 62 61 63 53 44 57 58 46 53 54
65 63 50 48 48 50 40 47 54 56 60 51 46 50 61 57 58 60 54 60 60 56 60 69 75 77 73 61 62 56 50 56 53 58 58 55 46 46 54 49 47 50 43
68 60 51 43 45 48 50 59 55 55 56 49 51 61 62 59 58 58 51 55 61 61 64 75 70 75 69 64 58 55 52 63 59 66 63 59 49 44 42 46 48 48 43
62 62 56 53 46 44 52 54 51 51 48 49 55 60 53 46 46 46 43 47 54 59 65 77 79 82 72 58 55 54 54 62 66 62 62 57 49 40 35 37 43 43 45
64 57 54 49 45 44 53 51 47 40 44 47 54 56 48 47 37 39 46 53 58 62 71 77 80 74 59 57 52 52 55 62 61 64 58 58 46 47 42 39 50 48 54
70 61 61 58 58 60 53 48 33 37 41 50 62 55 43 41 44 50 54 68 70 67 71 74 70 63 57 48 52 53 50 52 57 49 47 42 40 39 40 50 43 43 45
54 63 59 62 66 70 53 39 50 36 39 56 69 68 75 54 59 57 58 76 76 72 67 64 62 54 47 47 53 52 51 59 64 57 50 44 42 40 37 35 35 35 36
61 58 62 69 69 65 52 41 42 57 49 59 65 66 79 73 56 53 53 62 67 68 65 61 66 64 72 59 55 50 53 52 60 47 40 37 40 36 36 33 33 32 29
53 57 60 61 62 69 50 50 54 50 49 50 60 71 60 65 66 61 54 60 68 66 64 70 59 66 59 65 56 47 48 52 53 41 32 32 32 31 29 28 27 25 25
52 52 60 57 65 57 52 58 59 57 50 53 57 56 55 67 74 71 77 61 70 64 66 66 63 58 55 55 53 50 53 53 53 39 30 31 28 28 27 25 25 32 35
45 48 53 56 56 54 49 60 62 61 60 57 61 61 67 62 65 68 69 74 59 64 60 58 66 55 56 55 56 52 52 50 53 48 34 31 30 29 27 27 35 39 44
43 48 51 51 55 46 50 55 60 75 58 64 64 66 69 58 59 54 59 65 67 61 60 58 69 58 57 53 54 57 55 51 51 52 42 37 34 31 28 36 38 42 42
41 43 46 50 51 48 44 46 70 60 61 64 70 70 64 66 56 59 53 70 64 55 57 56 57 56 54 55 55 55 52 54 50 47 50 47 40 30 33 37 39 39 35
43 41 45 50 52 46 43 47 71 73 71 74 73 73 69 70 64 63 57 57 53 53 64 63 60 54 58 54 55 54 51 46 45 45 44 50 40 40 42 37 37 35 31
47 41 39 46 49 44 42 50 70 63 80 77 75 79 67 69 66 65 55 50 60 56 53 64 55 55 53 56 53 50 50 48 51 46 42 38 31 52 52 37 36 33 35
53 44 39 43 48 45 41 46 66 62 79 75 77 76 67 72 64 58 55 41 48 52 60 55 57 65 50 62 61 49 52 46 41 43 42 42 43 50 52 44 45 39 41
50 45 41 40 42 46 46 50 66 68 73 74 78 70 64 76 62 56 56 45 43 50 52 51 53 57 53 48 51 49 42 40 42 41 44 51 48 57 49 46 48 53 49
52 46 46 41 41 46 51 56 62 71 71 67 75 70 73 68 57 53 57 48 47 41 39 51 60 58 54 54 49 54 52 45 45 49 46 49 54 54 49 46 42 49 58
56 46 45 39 40 47 57 56 55 57 70 74 72 70 68 73 63 64 47 47 43 43 36 37 46 55 52 42 48 46 59 55 47 45 44 52 49 52 49 42 46 47 56
53 35 38 36 39 47 52 56 59 57 65 68 69 78 65 63 65 56 47 44 35 57 54 35 42 54 50 43 39 42 45 51 59 46 47 46 45 50 46 48 45 46 54
54 40 38 42 44 45 52 59 54 54 77 73 71 86 65 61 60 53 46 46 42 36 33 53 40 38 45 42 52 44 38 49 58 59 50 48 50 50 46 49 49 49 51
61 46 43 43 52 49 50 50 52 55 61 70 77 68 69 62 61 53 49 52 44 58 35 35 38 33 41 42 44 44 46 57 57 59 53 56 54 50 48 50 49 50 49